Regional Weather Roundup
Issued by NWS

Home | Current Version | Previous Version | Graphics & Text | Print | Product List | Glossary On
Versions: 1 2 3 4 5 6 7 8 9 10 11 12 13 14 15 16 17 18 19 20 21 22 23 24 25 26 27 28 29 30 31 32 33 34 35 36 37 38 39 40 41 42 43 44 45 46 47 48 49 50
817
ASUS43 KMKX 212220
RWRWI

WISCONSIN REGIONAL WEATHER ROUNDUP
NATIONAL WEATHER SERVICE MILWAUKEE/SULLIVAN WI
400 PM CST SAT JAN 21 2017

NOTE: "FAIR" INDICATES FEW OR NO CLOUDS BELOW 12,000 FEET WITH NO
SIGNIFICANT WEATHER AND/OR OBSTRUCTIONS TO VISIBILITY.

WIZ001-002-006>008-014>016-023>028-212300-
NORTHWEST WISCONSIN

CITY           SKY/WX    TMP DP  RH WIND       PRES   REMARKS
SUPERIOR ARPT  CLOUDY    35  35 100 NE9       29.48R FOG     WCI  27
ASHLAND        FOG       34  33  96 N5        29.47R VSB 1/4 WCI  30
HAYWARD        CLOUDY    37  36  96 NE3       29.43R FOG
SIREN          DRIZZLE   36  36  99 CALM      29.44R
CUMBERLAND     FOG       34  34 100 SE3       29.42R VSB 1/4
RICE LAKE      FOG       36  36  99 CALM      29.44R VSB 1/2
CHETEK         CLOUDY    36  36 100 CALM      29.43R FOG
LADYSMITH      FOG       37  37  98 CALM      29.44R VSB 1/2
EAU CLAIRE     FOG       36  36 100 CALM      29.42R VSB 1/4
MENOMONIE        N/A    N/A N/A N/A MISG        N/A
NEW RICHMOND   FOG       35  35 100 CALM      29.44R VSB 1/4
OSCEOLA        CLOUDY    37  37 100 CALM      29.46R FOG
$$

WIZ003>005-009-010-017-018-212300-
NORTH CENTRAL WISCONSIN

CITY           SKY/WX    TMP DP  RH WIND       PRES   REMARKS
MANITOWISH WTR CLOUDY    36  36 100 CALM      29.43R FOG
ARBOR VITAE    CLOUDY    38  37  97 SE3       29.43R FOG
WOODRUFF       CLOUDY    38  37  97 SE3       29.43R FOG
RHINELANDER    LGT RAIN  37  37 100 E7        29.43R VSB 3/4 WCI  32
EAGLE RIVER    CLOUDY    36  36 100 SE5       29.44R WCI  32
LAND O LAKES   CLOUDY    37  37  97 S5        29.46R WCI  34
PHILLIPS       CLOUDY    36  36 100 CALM      29.42R FOG
TOMAHAWK       RAIN      36  35  96 CALM      29.44R VSB 1
MEDFORD        FOG       35  35 100 SE5       29.42R VSB 1/4 WCI  31
MERRILL        FOG       36  36 100 SE3         N/A  VSB 1/4
$$

WIZ029-030-035-036-043>047-212300-
CENTRAL WISCONSIN

CITY           SKY/WX    TMP DP  RH WIND       PRES   REMARKS
WAUSAU         FOG       35  35 100 SE6       29.43R VSB 1/4 WCI  30
MOSINEE        FOG       36  36 100 E6        29.44R VSB 1/8 WCI  31
MARSHFIELD     FOG       35  35 100 SE5       29.42R VSB<1/4 WCI  31
STEVENS POINT  FOG       34  34 100 E3        29.45R VSB 1/2
WAUPACA        FOG       38  38  97 CALM      29.46R VSB 1/2
WAUTOMA        FOG       38  37  97 CALM      29.46R VSB 1/4
WISC RAPIDS    FOG       38  38 100 CALM      29.46R VSB 1/4
CAMP DOUGLAS   CLOUDY    39  39 100 CALM      29.46R
$$

WIZ011>013-019>022-031-037>040-048>050-212300-
NORTHEAST WISCONSIN

CITY           SKY/WX    TMP DP  RH WIND       PRES   REMARKS
ANTIGO         FOG       34  34 100 E5        29.44S VSB 1/4 WCI  30
SHAWANO        FOG       37  36  96 E5        29.47R VSB 1/2 WCI  33
OCONTO         CLOUDY    36  35  99 E3        29.48R VSB 1/2
STURGEON BAY   LGT RAIN  40  40 100 SE5       29.47S VSB 1/4
GREEN BAY      FOG       38  37  97 NE3       29.46R VSB 1/4
MANITOWOC      FOG       40  39  97 MISG      29.47R VSB 1/4
APPLETON       FOG       37  37 100 CALM      29.44R VSB 1/8
CLINTONVILLE   DRZL/FOG  36  34  93 NE3       29.46R VSB 1/2
OSHKOSH        FOG       37  37 100 CALM      29.45R VSB 1/4
$$

WIZ032>034-041-042-053>061-212300-
SOUTHWEST WISCONSIN

CITY           SKY/WX    TMP DP  RH WIND       PRES   REMARKS
LA CROSSE      CLOUDY    42  39  89 S6        29.44R FOG
SPARTA         CLOUDY    40  39  97 S3        29.46R
VIROQUA        CLOUDY    39  39 100 S7        29.44R VSB<1/4 WCI  34
BOSCOBEL       CLOUDY    43  42  97 CALM      29.48R FOG
PRAIRIE DU CHI CLOUDY    42  42  97 CALM      29.47R
PLATTEVILLE    CLOUDY    42  42 100 S6        29.48R
$$

WIZ056-057-062-063-064-067-068-212300-
SOUTH CENTRAL WISCONSIN

CITY           SKY/WX    TMP DP  RH WIND       PRES   REMARKS
REEDSBURG      CLOUDY    41  41 100 S5        29.45R FOG
BARABOO/DELLS  CLOUDY    42  41  99 SW3       29.45R FOG
LONE ROCK      FOG       41  40  96 CALM      29.48R VSB 1/4
MINERAL POINT  CLOUDY    43  43 100 SW7       29.47R FOG
MADISON        CLOUDY    44  43  96 S5        29.46R FOG
MIDDLETON      CLOUDY    45  45 100 SW6       29.46R
WATERTOWN      CLOUDY    46  46 100 SW5       29.46R
MONROE         CLOUDY    41  41 100 SW10      29.47R FOG
JANESVILLE     MOCLDY    48  46  93 W10       29.47R
$$

WIZ051-052-058>065-066-070>072-212300-
SOUTHEAST WISCONSIN

CITY           SKY/WX    TMP DP  RH WIND       PRES   REMARKS
MILWAUKEE      PTCLDY    54  44  69 SW12      29.46R
WAUKESHA       CLOUDY    50  43  76 SW14      29.46R
MILWAUKEE/TIMM MOCLDY    54  43  66 SW9       29.45R
RACINE         CLEAR     54  44  69 SW12      29.47R
KENOSHA        CLEAR     54  44  69 SW12      29.46R
FOND DU LAC    FOG       43  42  97 SW3       29.46R VSB 1/4
SHEBOYGAN      FOG       39  38  96 W3        29.46R VSB<1/4
WEST BEND      CLOUDY    43  43 100 CALM      29.46R FOG
JUNEAU         CLOUDY    44  42  96 SW9       29.47R FOG
$$

LSZ147-162-212300-
LAKE SUPERIOR

STATION/POSITION TIME  TEMP    WIND        PRES    WAVE
                       AIR SEA DIR/SP/G            HT/PER
                 (UTC) (F)     (DEG/KT/KT) (MB)    (FT/S)
DEVILS ISLAND    2200   35      70/ 12/ 14  998.8R
PORT WING        2140   34      30/ 11/ 12  998.3R
SAXON HARBOR     2130   34      60/  3/  6  997.6R
$$

LMZ867-665-643>646-212300-
LAKE MICHIGAN

STATION/POSITION TIME  TEMP    WIND        PRES    WAVE
                       AIR SEA DIR/SP/G            HT/PER
                 (UTC) (F)     (DEG/KT/KT) (MB)    (FT/S)
NORTHPORT PIER   2140   35      90/  1/  5  998.6F
SISTER BAY       2150   39     120/  7/ 11   N/A
KEWAUNEE LAKESHO 2154   40     200/  7/  9  997.9R
SHEBOYGAN LAKESH 2200   40     220/  6/  7  997.9R
PORT WASHINGTON  2130   38     200/  5/  7  998.6S
KENOSHA   LAKESH 2200   56     210/ 11/ 15  998.0
$$

TC  - TEMPERATURE IN CELSIUS
VSB - VISIBILITY IN STATUTE MILES
WCI - WIND CHILL INDEX
HX  - HEAT INDEX





USA.gov is the U.S. government's official web portal to all federal, state and local government web resources and services.